Location: Advent Lutheran Church
(32.6932°N, 97.1267°W)
Time: 13:20:40
(UTC+00:00)

Daily predictions for brighter satellites

Satellite Brightness Start Highest point End
(mag) Time Altitude Azimuth Time Altitude Azimuth Time Altitude Azimuth
Cosmos 1933 3.2 12:01:33 15° NNW 12:04:35 57° W 12:08:17 10° S
SKYMED 2 3.5 12:02:37 10° S 12:06:54 62° W 12:11:12 10° NNW
Cosmos 2098 Rocket 4.5 12:04:58 14° NW 12:09:01 30° W 12:13:56 10° SSW
H-II Stage 2 4.1 12:06:45 13° WSW 12:09:25 22° SSW 12:11:19 10° SE
Cosmos 2322 Rocket 4.5 12:08:31 10° NNE 12:12:41 20° ENE 12:16:49 10° ESE
COSMO-SKYMED 1 2.3 12:09:17 10° S 12:13:23 81° WSW 12:17:30 10° NNW
CBERS-1 4.4 12:10:15 10° NNE 12:15:19 67° ESE 12:20:21 10° S
ATLAS 2AS CENTAUR R/B 4.5 12:09:18 10° S 12:15:41 36° ESE 12:21:55 10° NE
Cosmos 2058 Rocket 4.1 12:12:36 10° N 12:16:54 47° E 12:21:06 10° SSE
CZ-3C R/B 3.6 12:13:26 10° SW 12:17:47 35° SSE 12:37:52 10° E
Cosmos-2242 4.2 12:14:42 10° N 12:18:45 43° E 12:22:43 10° SSE
COSMOS 2406 3.7 12:14:26 10° SW 12:19:34 35° WNW 12:24:44 10° N
Cosmos 2237 4.3 12:16:57 10° NNW 12:22:41 87° ENE 12:28:21 10° SSE
Thor Agena Rocket 4.3 12:20:38 10° NNE 12:25:34 55° E 12:30:28 10° S
SMAP 4.1 12:21:39 10° NNE 12:26:10 49° E 12:30:40 10° S
Meteor 2-20 4.4 12:23:16 10° N 12:29:22 82° W 12:35:26 10° S
Cosmos 2082 Rocket 3.7 12:31:41 12° WNW 12:33:29 14° NW 12:36:12 10° NNW
COSMOS 2455 2.9 12:30:54 10° NNW 12:36:49 61° WSW 12:42:42 10° S
SL-8 R/B 4.2 12:32:41 12° WNW 12:36:50 46° SW 12:41:21 10° SSE
SL-16 R/B 2.7 12:33:25 10° NNW 12:39:02 64° ENE 12:44:38 10° SSE
CZ-2D R/B 3.9 12:38:51 10° NNE 12:41:55 48° E 12:44:59 10° S
OAO 2 Rocket 3.9 12:38:11 10° WSW 12:43:16 60° SSE 12:48:15 10° E
Cosmos 405 Rocket 2.3 12:41:24 10° S 12:44:37 86° E 12:47:53 10° N
OAO 3 Rocket 4.4 12:44:09 10° SW 12:48:35 43° SSE 12:53:05 10° E
Cosmos 1758 Rocket 3.7 12:44:30 10° S 12:48:55 86° E 12:53:21 10° N
Meteor 2-20 Rocket 4.3 12:45:54 10° N 12:51:38 77° W 12:57:19 10° S
Cosmos 1484 Rocket 3.7 12:50:25 10° NNW 12:53:04 21° WNW 12:55:41 10° WSW
Delta 2 Rocket 2.4 12:50:11 10° WNW 12:53:14 83° SSW 12:56:11 10° ESE
Okean 1 2.9 12:51:18 10° N 12:54:50 72° W 12:58:21 10° S
SL-08 ROCKET BODY 4.3 12:49:23 10° S 12:55:16 81° W 13:01:07 10° N
Cosmos 158 Rocket 4.0 12:51:58 10° SSW 12:57:17 69° WNW 13:02:34 10° N
IGS 5A 3.4 23:41:22 10° SSE 23:45:18 88° WSW 23:49:16 10° NNW
UNK 3.8 23:40:48 10° N 23:45:22 83° WNW 23:49:55 10° SSW
SL-08 ROCKET BODY 4.5 23:43:47 10° N 23:49:40 59° E 23:55:36 10° SSE
Cosmos 1503 Rocket 4.1 23:45:56 10° S 23:51:07 62° ESE 23:56:17 10° NNE
Cosmos 1782 3.1 23:50:47 10° SSW 23:54:20 60° W 23:57:54 10° N
USA 276 2.3 23:57:01 10° WNW 23:58:05 25° SW 23:59:09 10° SSE
